This is the latest recevied weather packets stored in our database for station/object KF0FSA. If no packets are shown the sender has not sent any weather packets the latest 10 day(s).
| Time | Temp. | Humidity | Pressure | Rain* | Wind** | Luminosity | Snow |
|---|---|---|---|---|---|---|---|
| 1777945322 | 11.67° C | 41% | 954.9 hPa | 0 mm | - | 0 W/m² | - |
| 1777945020 | 11.67° C | 40% | 954.8 hPa | 0 mm | - | 2 W/m² | - |
| 1777944720 | 11.67° C | 40% | 954.8 hPa | 0 mm | - | 3 W/m² | - |
| 1777944417 | 11.67° C | 40% | 954.7 hPa | 0 mm | - | 4 W/m² | - |
| 1777944114 | 11.67° C | 40% | 954.8 hPa | 0 mm | - | 7 W/m² | - |
| 1777943938 | 11.67° C | 39% | 954.8 hPa | 0 mm | - | 9 W/m² | - |
| 1777943514 | 11.67° C | 39% | 954.7 hPa | 0 mm | - | 12 W/m² | - |
| 1777943213 | 11.67° C | 39% | 954.5 hPa | 0 mm | - | 15 W/m² | - |
| 1777942914 | 12.22° C | 39% | 954.5 hPa | 0 mm | - | 18 W/m² | - |
| 1777942614 | 12.22° C | 38% | 954.5 hPa | 0 mm | - | 28 W/m² | - |
| 1777942314 | 12.22° C | 39% | 954.5 hPa | 0 mm | - | 34 W/m² | - |
| 1777942011 | 12.22° C | 38% | 954.4 hPa | 0 mm | - | 34 W/m² | - |
| 1777941711 | 12.22° C | 38% | 954.4 hPa | 0 mm | - | 36 W/m² | - |
| 1777941412 | 12.22° C | 38% | 954.4 hPa | 0 mm | - | 43 W/m² | - |
| 1777941112 | 12.22° C | 37% | 954.3 hPa | 0 mm | - | 58 W/m² | - |
| 1777940811 | 12.22° C | 38% | 954.4 hPa | 0 mm | - | 65 W/m² | - |
| 1777940635 | 12.22° C | 38% | 954.4 hPa | 0 mm | - | 59 W/m² | - |
| 1777940211 | 12.78° C | 37% | 954.4 hPa | 0 mm | - | 74 W/m² | - |
| 1777939911 | 12.78° C | 36% | 954.3 hPa | 0 mm | - | 90 W/m² | - |
| 1777939612 | 12.78° C | 37% | 954.3 hPa | 0 mm | - | 97 W/m² | - |
| 1777939306 | 12.78° C | 37% | 954.4 hPa | 0 mm | - | 92 W/m² | - |
| 1777939002 | 12.78° C | 37% | 954.5 hPa | 0 mm | - | 102 W/m² | - |
| 1777938703 | 12.78° C | 37% | 954.3 hPa | 0 mm | - | 103 W/m² | - |
| 1777938525 | 12.78° C | 37% | 954.3 hPa | 0 mm | - | 146 W/m² | - |
| 1777938108 | 12.78° C | 37% | 954.2 hPa | 0 mm | - | 157 W/m² | - |
* Rain latest hour (hover to see other rain measurements)
** Current wind speed in m/s (hover to see current wind gust speed)